Lid_Strength_Index
5 5 5 6 6 6 6 6 6 5 4 4 4 4 4 4 5 5 5 6 6 7 7 11 10 10 10 9 12 13 13 13 14 13 13 13 13 14 14 15 17 18 18 19 17 17 19 15 17 17 14 16 15 15
4 5 6 5 5 5 6 6 6 5 5 4 4 4 4 4 6 5 7 7 7 9 10 11 11 10 10 11 10 11 10 12 11 12 11 11 14 15 13 16 13 16 13 15 14 15 14 15 15 15 14 15 15 16
4 5 5 5 5 5 5 5 6 5 5 5 4 4 4 4 4 5 6 7 8 10 9 12 12 11 11 10 10 11 11 9 10 9 9 11 13 12 15 14 16 15 13 15 15 13 14 14 15 14 15 15 14 15
4 5 5 5 5 4 5 5 5 5 5 5 5 4 4 4 4 5 6 5 8 9 11 11 11 12 10 11 10 10 10 9 9 8 13 12 12 12 12 13 13 14 14 14 14 13 14 13 13 14 15 14 14 15
3 4 5 4 4 3 4 5 5 5 5 5 5 4 4 4 5 5 6 5 6 8 13 12 13 12 11 11 11 10 10 10 10 11 11 12 12 14 14 15 15 14 14 14 14 11 12 12 12 13 15 15 15 15
3 3 4 4 3 3 4 5 5 5 5 5 5 4 4 4 5 6 9 6 7 7 11 13 12 13 11 11 11 11 10 10 9 10 10 12 14 14 16 16 11 12 12 11 11 11 13 14 12 13 14 15 15 15
3 3 3 3 3 3 3 4 4 5 5 5 5 5 5 4 5 9 8 7 6 7 12 14 14 13 11 11 12 12 11 11 10 11 13 12 15 14 14 14 10 11 12 12 13 13 15 13 14 13 14 15 13 15
2 3 3 3 3 2 3 4 4 5 5 5 5 5 5 4 5 8 6 5 6 10 10 15 14 15 12 14 15 11 12 12 11 11 14 14 16 15 17 13 11 10 11 12 13 14 14 13 13 14 14 15 16 16
3 3 3 2 2 2 3 4 4 5 5 5 5 5 5 6 8 7 5 6 6 9 14 15 15 16 14 14 14 14 11 14 13 14 13 14 15 17 14 13 12 11 11 11 13 14 13 14 14 14 14 15 16 17
3 2 2 2 2 2 3 4 4 5 5 5 5 7 10 6 3 5 8 9 10 11 12 14 12 16 14 14 14 14 14 13 16 14 14 16 15 11 11 10 11 10 10 12 15 16 15 15 14 15 15 15 15 16
2 2 2 2 2 3 3 4 5 5 5 5 8 9 6 4 5 8 12 13 12 14 13 13 11 16 14 15 14 14 16 15 18 14 15 16 17 13 10 9 9 9 9 10 10 11 12 13 13 14 14 14 15 16
2 2 2 2 3 3 4 4 5 6 6 7 7 6 6 9 11 12 13 13 13 12 12 12 13 13 15 13 14 15 15 16 18 15 17 18 13 10 10 9 8 8 9 9 11 11 12 12 13 13 14 14 16 16
2 2 2 2 2 3 4 5 5 5 6 5 9 11 11 11 14 14 15 13 13 10 13 13 15 14 15 13 14 14 16 17 15 18 18 16 11 10 10 9 10 10 9 10 11 11 12 12 12 13 14 14 15 16
2 2 2 2 3 4 4 5 5 6 7 11 14 17 13 14 14 12 11 12 9 9 11 12 14 13 14 14 15 15 14 16 19 19 17 13 11 10 9 10 10 10 10 10 11 11 13 13 13 13 14 14 16 17
2 2 2 3 3 4 5 4 5 5 8 13 13 17 14 11 10 10 9 9 9 8 9 12 13 12 14 15 15 16 18 18 17 16 13 10 10 10 10 11 11 11 11 11 12 12 13 13 13 14 14 14 15 17
2 2 4 3 4 4 4 5 6 6 10 12 14 15 13 12 12 10 10 10 9 9 9 11 14 14 14 14 17 16 16 17 15 13 11 11 12 12 12 12 11 11 11 12 12 12 12 13 13 14 14 15 16 16
2 6 3 3 4 4 4 6 7 11 13 14 15 12 12 12 12 11 11 10 8 10 11 12 13 14 14 14 14 14 15 11 10 10 11 12 13 14 14 14 13 12 12 13 13 13 13 13 13 14 16 15 16 16
6 4 3 3 5 5 6 8 11 12 15 13 15 13 12 11 11 11 11 10 10 11 11 13 13 14 14 14 14 12 12 11 10 11 12 14 14 14 14 15 14 13 13 13 13 13 13 14 14 15 15 15 16 16
5 4 3 3 5 8 10 11 11 16 15 13 12 12 11 11 10 10 10 10 9 9 11 12 14 15 13 12 12 12 11 11 11 11 13 15 14 15 14 14 14 14 14 13 13 13 13 14 14 14 15 15 16 16
3 3 3 4 5 10 14 13 11 14 15 12 11 12 11 11 10 9 9 9 10 12 14 15 14 10 10 11 11 11 10 10 11 12 12 12 14 15 15 14 14 14 14 14 14 12 14 15 14 14 15 15 16 17
4 5 4 6 10 10 11 12 13 12 11 12 11 11 11 10 11 11 10 9 11 11 13 12 12 9 8 7 8 9 9 10 11 11 12 12 13 14 15 15 15 15 15 15 15 15 13 14 14 14 15 15 15 16
6 5 9 8 11 11 12 11 13 11 13 12 13 12 12 12 12 11 9 10 11 11 11 11 10 10 9 9 8 8 8 8 10 10 9 11 14 14 15 15 15 15 15 16 15 15 15 14 14 14 15 15 14 16
6 7 9 10 14 14 16 11 15 14 17 16 13 15 14 13 11 8 11 10 10 9 8 8 9 8 9 8 8 8 7 8 10 11 11 11 11 12 14 14 14 15 15 15 15 15 15 13 13 15 15 15 16 16
6 10 12 14 15 17 14 15 14 15 15 17 17 19 17 14 11 13 13 12 10 8 9 9 8 9 9 9 9 8 7 7 8 9 9 10 12 12 13 13 14 14 14 14 15 15 15 15 13 15 15 16 16 16
13 14 14 17 14 16 18 18 16 15 19 17 18 18 16 12 15 15 14 12 11 10 9 8 8 8 9 9 8 9 8 7 9 9 10 10 11 12 13 13 13 13 13 14 15 15 15 15 15 15 16 16 17 17
16 16 16 17 17 18 18 19 18 17 16 19 17 14 13 15 18 18 13 12 10 10 11 11 11 10 9 8 9 9 9 7 8 10 9 8 9 11 12 14 15 14 13 13 14 15 15 15 15 16 16 16 15 17
19 17 14 13 14 15 15 14 14 15 18 19 17 16 16 21 18 13 11 9 9 9 9 10 10 11 11 9 6 6 7 7 8 8 9 9 8 7 9 11 13 11 12 12 13 14 14 15 15 16 16 16 16 16
16 16 18 16 15 13 17 17 17 18 16 14 14 18 19 17 15 12 10 9 9 9 9 9 9 10 11 10 10 10 9 7 7 7 8 8 9 7 8 8 9 9 10 11 13 13 13 14 15 15 16 16 15 15
16 14 15 17 15 15 16 16 15 13 12 13 15 16 15 12 11 12 10 9 9 10 11 11 11 10 10 10 10 9 10 10 9 10 11 11 10 9 9 10 9 10 11 11 10 12 13 13 14 14 15 15 15 15
16 12 14 16 19 18 14 12 13 13 12 12 12 13 13 12 11 10 10 10 11 11 10 10 10 11 11 11 12 11 10 9 9 9 9 9 9 8 9 10 10 11 11 11 12 12 10 12 12 13 14 16 16 16
12 12 15 15 17 14 12 12 12 12 12 12 11 13 13 12 10 9 9 9 9 9 10 10 10 10 11 11 11 12 12 10 9 8 8 7 6 7 8 9 10 11 11 12 12 12 12 13 14 14 15 16 16 16
12 14 14 18 16 12 12 13 13 13 13 13 13 12 12 12 14 11 9 8 10 10 9 9 10 11 10 9 9 10 9 9 9 9 8 8 7 6 6 8 10 10 11 11 11 12 13 13 14 14 14 15 16 16
12 12 13 14 16 16 12 13 15 15 14 13 13 12 12 12 14 11 8 8 9 10 10 10 9 9 9 10 10 10 9 9 9 7 7 7 6 5 7 8 8 8 9 10 11 12 13 13 14 14 14 15 15 16